Weather History for Wilmington, OH

Change the Weather History Date:

Monday, October 28, 2013

  Actual Average (KDAY) Record (KDAY)
Temperature  
Mean Temperature 44 °F 50 °F  
Max Temperature 64 °F 60 °F 81 °F (1900)
Min Temperature 28 °F 41 °F 23 °F (1976)
Degree Days  
Heating Degree Days 20 15  
Month to date heating degree days 310  
Since 1 July heating degree days 400  
Cooling Degree Days 0 0  
Month to date cooling degree days 10  
Year to date cooling degree days 891  
Moisture  
Dew Point 32 °F    
Average Humidity 66    
Maximum Humidity 96    
Minimum Humidity 31    
Precipitation  
Precipitation 0.00 in 0.10 in 1.65 in (1984)
Month to date precipitation 2.63  
Year to date precipitation 34.24  
Snow  
Snow 0.00 in 0.00 in - ()
Month to date snowfall 0.2  
Since 1 July snowfall 0.2  
Since 1 September snowfall 0.2  
Snow Depth -    
Sea Level Pressure  
Sea Level Pressure 30.25 in    
Wind  
Wind Speed 1 mph (NE)    
Max Wind Speed 6 mph    
Max Gust Speed -    
Visibility 10 miles    
Events      
T = Trace of Precipitation, MM = Missing Value Source: NWS Daily Summary

Daily Weather History Graph

Daily Weather History Graph

Search for Another Location

Airport:

Trip Planner

Search our weather history database for the weather conditions in past years. The results will help you decide how hot, cold, wet, or windy it might be!

Date:

Astronomy

Oct. 28, 2013 Rise Set
Actual Time 7:59 AM EDT 6:38 PM EDT
Civil Twilight 7:31 AM EDT 7:05 PM EDT
Nautical Twilight 6:59 AM EDT 7:37 PM EDT
Astronomical Twilight 6:28 AM EDT 8:08 PM EDT
Moon 1:53 AM EDT (10/28) 3:18 PM EDT (10/28)
Length of Visible Light 11h 34m
Length of Day
10h 39m
Waning Crescent, 34% of the Moon is Illuminated
Oct 28
Waning Crescent
Nov 3
New
Nov 10
First Quarter
Nov 17
Full
Nov 25
Last Quarter

Hourly Weather History & Observations

Time (EDT) Temp. Windchill Dew Point Humidity Pressure Visibility Wind Dir Wind Speed Gust Speed Precip Events Conditions
12:54 AM 36.0 °F - 30.9 °F 82% 30.14 in 10.0 mi Calm Calm - N/A   Clear
1:54 AM 34.0 °F - 30.9 °F 89% 30.14 in 10.0 mi Calm Calm - N/A   Clear
2:54 AM 33.1 °F - 28.9 °F 85% 30.16 in 10.0 mi Calm Calm - N/A   Clear
3:54 AM 33.1 °F - 30.9 °F 92% 30.17 in 10.0 mi Calm Calm - N/A   Clear
4:54 AM 28.9 °F - 28.0 °F 96% 30.19 in 10.0 mi Calm Calm - N/A   Clear
5:54 AM 32.0 °F - 30.0 °F 92% 30.21 in 10.0 mi Calm Calm - N/A   Clear
6:54 AM 33.1 °F 30.0 °F 30.0 °F 89% 30.22 in 10.0 mi NNE 3.5 mph - N/A   Clear
7:54 AM 30.9 °F - 28.9 °F 92% 30.25 in 8.0 mi Calm Calm - N/A   Clear
8:54 AM 34.0 °F - 30.9 °F 89% 30.27 in 10.0 mi Calm Calm - N/A   Clear
9:54 AM 46.0 °F 44.8 °F 37.0 °F 71% 30.27 in 10.0 mi ENE 3.5 mph - N/A   Clear
10:54 AM 51.1 °F - 36.0 °F 56% 30.28 in 10.0 mi SE 4.6 mph - N/A   Clear
11:54 AM 55.9 °F - 36.0 °F 47% 30.28 in 10.0 mi SE 4.6 mph - N/A   Clear
12:54 PM 57.9 °F - 35.1 °F 42% 30.27 in 10.0 mi SE 4.6 mph - N/A   Clear
1:54 PM 60.1 °F - 33.1 °F 36% 30.26 in 10.0 mi Calm Calm - N/A   Clear
2:54 PM 60.1 °F - 28.9 °F 31% 30.24 in 10.0 mi Calm Calm - N/A   Clear
3:54 PM 61.0 °F - 30.9 °F 32% 30.25 in 10.0 mi Calm Calm - N/A   Clear
4:54 PM 61.0 °F - 30.9 °F 32% 30.25 in 10.0 mi Calm Calm - N/A   Clear
5:54 PM 59.0 °F - 30.9 °F 35% 30.25 in 10.0 mi Calm Calm - N/A   Clear
6:54 PM 53.1 °F - 34.0 °F 48% 30.28 in 10.0 mi North 5.8 mph - N/A   Clear
7:54 PM 48.9 °F - 34.0 °F 56% 30.30 in 10.0 mi NNE 3.5 mph - N/A   Clear
8:54 PM 45.0 °F 43.5 °F 33.1 °F 63% 30.32 in 10.0 mi NNE 3.5 mph - N/A   Clear
9:54 PM 44.1 °F 42.5 °F 34.0 °F 68% 30.31 in 10.0 mi NNE 3.5 mph - N/A   Clear
10:54 PM 39.0 °F 34.8 °F 33.1 °F 79% 30.33 in 10.0 mi North 5.8 mph - N/A   Clear
11:54 PM 41.0 °F 37.1 °F 33.1 °F 73% 30.32 in 10.0 mi NE 5.8 mph - N/A   Clear